CZ-4C DEB

Satellite information

Favourite Embed

Satellite Type and Status

DEBRISIN ORBIT

Key statistics

Satellite CZ-4C DEB at a glance.

Uptime

5667

Days in orbit

Revolutions

≈ 13.5

Per day

Orbit

LEO

Low Earth Orbit

Inclination

63.4

Latest

Satellite identification and parameters

Extended collection of information and parameters for CZ-4C DEB.

Object identification

Identified? True

Debris? True

Object name: CZ-4C DEB

International designator: 2010-009E

Object number (NORAD): 36417

Object ID (CCSDS): 36417

Country: PEOPLES REPUBLIC OF CHINA (PRC)

Current information (Y/N): Y

RCS size: LARGE

Orbital parameters

Period: 106.966 minutes

Inclination: 63.3723 deg

SMA: 7464.313 km

Apoapsis: 1466.643 km

Periapsis: 705.713 km

RAAN: 8.9808 deg

Eccentricy: 0.05097119

Argument of periapsis: 18.667 deg

Mean anomaly: 354.028 deg

Mean motion: 13.46226014 rev/day

Mean motion (dot): 0.0000001 rev/day2

B* drag term: 0.000076545113 1/REarth

Two-line elements (TLE)

Creation date: Sept. 8, 2025, 6:18 p.m.

Reference frame: TEME

Reference center: EARTH

Epoch: Sept. 8, 2025, 3:15 p.m. UTC

TLE line 0: 0 CZ-4C DEB

TLE line 1: 1 36417U 10009E 25251.63575521 .00000010 00000-0 76545-4 0 9992

TLE line 2: 2 36417 63.3723 8.9808 0509712 18.6670 354.0280 13.46226014761850

Live tracking on map

Real-time ground track for satellite CZ-4C DEB.

In-orbit conjunctions

A list of the most updated potential collisions computed for object CZ-4C DEB.

Target Orbit TCA Probability of collision Miss distance Type
COSMOS 2251 DEB LEO 2025-05-14 17:05:50 0.0001251804 351.0 (m) DEBRIS

Associated space launch

CZ-4C DEB was lifted into orbit during the mission ‘Long March 4C | Yaogan-9’, on board a Long March 4C space rocket.

The launch took place on March 5, 2010, 4:55 a.m. from Launch Area 4 (SLS-2 / 603).

For more information about the launch, click the button.

Launch to space Long March 4C | Yaogan-9
Long March 4C | Yaogan-9

Agency: N/A

Status: Launch Successful

Launch date: March 5, 2010, 4:55 a.m. UTC

Rocket: Long March 4C

Launch pad: Launch Area 4 (SLS-2 / 603)

Location: Jiuquan Satellite Launch Center, People's Republic of China

...

Latest news about this satellite

There are no fresh news available about this satellite. Check back as we update our databases every day.


Newsletter sign-up

Weekly statistics, charts and insights to help you stay on top of the space industry.